Regional Weather Roundup
Issued by NWS Cleveland, OH

Home | Current Version | Previous Version | Text Only | Print | Product List | Glossary On
Versions: 1 2 3 4 5 6 7 8 9 10 11 12 13 14 15 16 17 18 19 20 21 22 23 24 25 26 27 28 29 30 31 32 33 34 35 36 37 38 39 40 41 42 43 44 45 46 47 48 49 50
000
ASUS41 KCLE 241812
RWRCLE
OHIO REGIONAL WEATHER ROUNDUP
NATIONAL WEATHER SERVICE WILMINGTON, OH
200 PM EDT SUN SEP 24 2017

NOTE: "FAIR" INDICATES FEW OR NO CLOUDS BELOW 12,000 FEET WITH NO
SIGNIFICANT WEATHER AND/OR OBSTRUCTIONS TO VISIBILITY.

OHZ001>008-015>018-024>027-034-035-043-044-241900-
   NORTHWEST OHIO

CITY           SKY/WX    TMP DP  RH WIND       PRES   REMARKS
DEFIANCE       FAIR      88  57  34 SE7       30.11F
FINDLAY        FAIR      88  58  36 SE5       30.11F
TOLEDO EXPRESS FAIR      91  59  33 E9        30.12F HX  90
TOLEDO EXEC    FAIR      90  60  36 VRB6      30.12F
LIMA           FAIR      89  55  31 SE8       30.12F
$$

OHZ009>014-019>023-028>033-038-089-241900-
   NORTHEAST OHIO

CITY           SKY/WX    TMP DP  RH WIND       PRES   REMARKS
CLE-HOPKINS    FAIR      93  65  39 NE12      30.14F HX  95
CLE-LAKEFRONT  FAIR      80  68  66 NE7       30.12F
CUY CO. ARPT   SUNNY     91  66  43 SE8       30.15F HX  94
LORAIN-ELYRIA  FAIR      90  59  35 VRB5      30.13F
ASHTABULA      FAIR      87  64  46 VRB3      30.16F
AKRON-CANTON   FAIR      91  61  36 E8        30.14F HX  91
WOOSTER        FAIR      88  61  40 SE5       30.15F
MANSFIELD      FAIR      88  62  41 SE10      30.15F
YOUNGSTOWN     FAIR      89  66  46 E9        30.15F HX  91
$$

OHZ042-051>053-060>062-070>072-077>081-241900-
  SOUTHWEST OHIO

CITY           SKY/WX    TMP DP  RH WIND       PRES   REMARKS
CINC-COVINGTON FAIR      88  58  36 SE12      30.09F
CINC-LUNKEN    FAIR      88  60  38 S6        30.08F
HAMILTON       FAIR      88  58  36 VRB5      30.10F
DAYTON         FAIR      87  56  34 S10       30.12F
WRIGHT-PAT AFB FAIR      89  51  27 SE10      30.10F
DAYTON GENERAL FAIR      87  55  33 VRB5      30.10F
WILMINGTON     FAIR      86  56  35 SE9       30.11F
$$

OHZ036-037-039>041-045>050-054>059-063>069-073>076-082>088-241900-
  CENTRAL AND SOUTHEAST OHIO

CITY           SKY/WX    TMP DP  RH WIND       PRES   REMARKS
COLUMBUS       FAIR      88  58  36 E5        30.11F
OSU AIRPORT    FAIR      87  60  40 SE9       30.12F
BOLTON FIELD   SUNNY     86  61  42 E7        30.13F
RICKENBACK AFB FAIR      87  57  36 E12G18    30.10F
NEWARK         FAIR      88  57  34 E7        30.12F
MARION         FAIR      89  57  33 E13       30.13F
LANCASTER      FAIR      86  62  44 E9        30.12F
ZANESVILLE     FAIR      89  58  34 E7        30.12F
NEW PHILLY     FAIR      92  60  34 VRB6      30.13F HX  91
$$




USA.gov is the U.S. government's official web portal to all federal, state and local government web resources and services.